Погода в Пуэрто-Барриосе

Гватемала     15°43′19″N   88°35′27″W
темп.,
°C
ветер,
м/с
пор.,
м/с
влажн.,
%
обл.,
%
осадки,
мм/ч
давл.,
гПа
погр.,
м
28 февраля, вс
вс2800:00+23вюв12903 0.1 1015213
03:00+22ююз249312 0.0 1013125
06:00+22юз25926 0.0 1014182
09:00+27зюз12683 0.0 1015598
12:00+28с33675 0.0 1013844
15:00+28св45682 0.0 1010818
18:00+25всв27811 0.0 1012531
21:00+24в13893 0.0 1014242
1 марта, пн
пн100:00+22ю11911 0.1 1014124
03:00+22юз249220 0.0 1012155
06:00+21ююз229335 0.0 1013107
09:00+28ю016716 0.0 1015592
12:00+29ссв336412 0.0 1013831
15:00+28св45680 0.0 1010810
18:00+25всв38790 0.0 1011591
21:00+23вюв25890 0.0 1014251
2 марта, вт
вт200:00+22ююз22937 0.0 101495
03:00+22ююз369118 0.0 1013174
06:00+22ююз249019 0.0 1014151
09:00+27зюз126947 0.0 1016495
12:00+27ссз337255 0.1 1014625
15:00+28ссв44689 0.2 1012825
18:00+25св36824 0.3 1013435
21:00+23вюв259217 0.1 1016247
3 марта, ср
ср300:00+22юв129215 0.5 1015101
03:00+22ююв229542 0.6 101599
06:00+21ю129553 1.0 101665
09:00+25ссз138471 1.2 1018548
12:00+28с336443 1.4 10151091
15:00+28ссв33590 0.0 1013879
18:00+24в368324 0.0 1015341
21:00+23в149238 0.0 1017206
4 марта, чт
чт400:00+21ю229549 0.1 101776
03:00+21ююз229467 0.1 101788
06:00+21юз129555 0.1 101791
09:00+27з117165 0.1 1019590
12:00+28с226042 0.3 10161038
15:00+28св33550 0.0 1014845
18:00+24в24780 0.0 1015162
21:00+22ююв118518 0.0 101763